This is the latest recevied weather packets stored in our database for station/object K7OWW-2. If no packets are shown the sender has not sent any weather packets the latest 10 day(s).
| Time | Temp. | Humidity | Pressure | Rain* | Wind** | Luminosity | Snow |
|---|---|---|---|---|---|---|---|
| 1788488925 | 7.78° C | 82% | 1011.8 hPa | 0 mm | - | - | - |
| 1788488325 | 7.78° C | 80% | 1011.8 hPa | 0 mm | - | - | - |
| 1788487747 | 8.33° C | 78% | 1011.8 hPa | 0 mm | - | - | - |
| 1788487125 | 8.33° C | 76% | 1011.7 hPa | 0 mm | - | - | - |
| 1788486527 | 8.33° C | 73% | 1011.6 hPa | 0 mm | - | - | - |
| 1788485941 | 8.89° C | 74% | 1011.5 hPa | 0 mm | - | - | - |
| 1788485328 | 8.89° C | 74% | 1011.5 hPa | 0 mm | - | - | - |
| 1788484725 | 8.89° C | 76% | 1011.3 hPa | 0 mm | - | - | - |
| 1788484125 | 8.89° C | 77% | 1011.3 hPa | 0 mm | - | - | - |
| 1788483525 | 8.89° C | 73% | 1011.2 hPa | 0 mm | - | - | - |
| 1788482925 | 9.44° C | 72% | 1011.1 hPa | 0 mm | - | - | - |
| 1788482325 | 9.44° C | 70% | 1011.2 hPa | 0 mm | - | - | - |
| 1788481725 | 10.56° C | 69% | 1011.2 hPa | 0 mm | - | - | - |
| 1788481130 | 10.56° C | 70% | 1011.3 hPa | 0 mm | - | - | - |
| 1788480525 | 10.56° C | 71% | 1011.3 hPa | 0 mm | - | - | - |
| 1788479925 | 11.11° C | 73% | 1011.3 hPa | 0 mm | - | - | - |
| 1788479325 | 10° C | 76% | 1011.3 hPa | 0 mm | - | - | - |
| 1788478725 | 10° C | 79% | 1011.4 hPa | 0 mm | - | - | - |
| 1788478125 | 9.44° C | 80% | 1011.5 hPa | 0 mm | - | - | - |
| 1788477525 | 9.44° C | 81% | 1011.4 hPa | 0 mm | - | - | - |
| 1788476925 | 9.44° C | 82% | 1011.5 hPa | 0 mm | - | - | - |
| 1788476325 | 9.44° C | 87% | 1011.5 hPa | 0 mm | - | - | - |
| 1788475725 | 8.89° C | 92% | 1011.6 hPa | 0 mm | - | - | - |
| 1788475125 | 8.33° C | 97% | 1011.8 hPa | 0 mm | - | - | - |
| 1788474525 | 8.33° C | 97% | 1011.8 hPa | 0 mm | - | - | - |
* Rain latest hour (hover to see other rain measurements)
** Current wind speed in m/s (hover to see current wind gust speed)